This is the latest recevied weather packets stored in our database for station/object N1MCJ. If no packets are shown the sender has not sent any weather packets the latest 10 day(s).
| Time | Temp. | Humidity | Pressure | Rain* | Wind** | Luminosity | Snow |
|---|---|---|---|---|---|---|---|
| 1777969652 | 9.44° C | 96% | 1001.9 hPa | 0 mm | - | 0 W/m² | - |
| 1777968749 | 9.44° C | 95% | 1001.7 hPa | 0 mm | - | 0 W/m² | - |
| 1777967848 | 9.44° C | 95% | 1001.8 hPa | 0 mm | - | 0 W/m² | - |
| 1777966946 | 9.44° C | 94% | 1001.7 hPa | 0 mm | - | 0 W/m² | - |
| 1777966043 | 9.44° C | 93% | 1001.7 hPa | 0 mm | - | 0 W/m² | - |
| 1777965138 | 9.44° C | 92% | 1001.8 hPa | 0 mm | - | 0 W/m² | - |
| 1777964234 | 10° C | 91% | 1002 hPa | 0 mm | - | 0 W/m² | - |
| 1777963332 | 10° C | 90% | 1001.8 hPa | 0 mm | - | 0 W/m² | - |
| 1777962427 | 10.56° C | 89% | 1002 hPa | 0 mm | - | 0 W/m² | - |
| 1777961526 | 10.56° C | 87% | 1001.8 hPa | 0 mm | - | 0 W/m² | - |
| 1777960620 | 11.11° C | 86% | 1001.9 hPa | 0 mm | - | 0 W/m² | - |
| 1777959718 | 10.56° C | 85% | 1002.1 hPa | 0 mm | - | 0 W/m² | - |
| 1777958815 | 10.56° C | 85% | 1002.2 hPa | 0 mm | - | 0 W/m² | - |
| 1777957913 | 11.11° C | 84% | 1002.2 hPa | 0 mm | - | 0 W/m² | - |
| 1777957009 | 11.11° C | 81% | 1002.2 hPa | 0 mm | - | 0 W/m² | - |
| 1777956107 | 11.67° C | 80% | 1002.4 hPa | 0 mm | - | 0 W/m² | - |
| 1777955208 | 12.22° C | 78% | 1002.7 hPa | 0 mm | - | 0 W/m² | - |
| 1777954306 | 12.22° C | 78% | 1002.4 hPa | 0 mm | - | 0 W/m² | - |
| 1777953402 | 11.67° C | 78% | 1002.5 hPa | 0 mm | - | 0 W/m² | - |
| 1777952498 | 11.67° C | 79% | 1002.3 hPa | 0 mm | - | 0 W/m² | - |
| 1777951596 | 11.67° C | 79% | 1002.3 hPa | 0 mm | - | 0 W/m² | - |
| 1777950691 | 11.11° C | 81% | 1002.7 hPa | 0 mm | - | 0 W/m² | - |
| 1777949786 | 11.67° C | 80% | 1002.6 hPa | 0 mm | - | 0 W/m² | - |
| 1777948885 | 11.67° C | 78% | 1002.3 hPa | 0 mm | - | 0 W/m² | - |
| 1777947982 | 12.22° C | 76% | 1002.5 hPa | 0 mm | - | 0 W/m² | - |
* Rain latest hour (hover to see other rain measurements)
** Current wind speed in m/s (hover to see current wind gust speed)